Погода в Адзьвавоме

Россия / Республика Коми     66°35′38″N   59°17′18″E
темп.,
°C
ветер,
м/с
пор.,
м/с
влажн.,
%
обл.,
%
осадки,
мм/ч
давл.,
гПа
погр.,
м
26 января, вт
вт2600:00−16в4697100 0.8 1014145
03:00−17всв5796100 2.2 1013186
06:00−18всв5797100 1.1 1012185
09:00−19св6998100 2.1 1012249
12:00−21св6997100 0.8 1014266
15:00−25ссв6992100 0.9 1018237
18:00−31св569342 0.0 102181
21:00−33св579138 0.0 102392
27 января, ср
ср2700:00−32всв5890100 0.0 1024171
03:00−32всв5989100 0.0 1025175
06:00−31в61088100 0.0 1024217
09:00−30в71088100 0.0 1023230
12:00−27в71188100 0.0 1022250
15:00−26в81187100 0.0 1020253
18:00−25в81292100 0.2 1018265
21:00−25в91398100 1.3 1016254
28 января, чт
чт2800:00−25в91398100 1.0 1014282
03:00−25в91398100 2.4 1012298
06:00−26в91298100 1.1 1011292
09:00−27в81197100 1.8 1011290
12:00−28всв81198100 0.6 1011295
15:00−29всв71097100 1.2 1014305
18:00−30св5895100 0.2 1017254
21:00−33ссв449791 0.2 102136
29 января, пт
пт2900:00−36ссв449736 0.0 102533
03:00−37ссв449725 0.0 102731
06:00−38ссв34960 0.0 103022
09:00−38св34963 0.0 103122
12:00−35всв44940 0.0 103372
15:00−36всв55920 0.0 103460
18:00−35всв69890 0.0 1033107
21:00−34в6118722 0.0 1033140
30 января, сб
сб3000:00−31в81285100 0.0 1031213
03:00−30в71286100 0.0 1030215
06:00−30в8128899 0.0 1029195
09:00−30в7128899 0.0 1027206
12:00−29в71089100 0.0 1027231
15:00−31в6890100 0.0 1026130
18:00−32в699095 0.0 1025141
21:00−31в689097 0.0 1024179